K5ERO-13 Weather Reports


time (UTC)temp
F
wind
direction
speed
knots
gust
knots
rain 1hr
in
rain 24hr
in
rain mn
in
humidity
%
barometer
mb
20260510183938 80 196 5.2 7.0 0.00 0.17 0.00 74 1016.3
20260510181928 80 191 0.9 3.5 0.00 0.20 0.00 72 1016.6
20260510180923 79 189 3.5 7.0 0.00 0.22 0.00 71 1017.0
20260510174914 79 141 2.6 6.1 0.00 0.26 0.00 69 1017.0
20260510170855 78 328 1.7 6.1 0.00 0.57 0.00 71 1017.3
20260510164845 79 326 6.1 8.7 0.00 0.70 0.00 72 1017.3
20260510162835 78 201 2.6 7.8 0.00 0.72 0.00 74 1017.3
20260510154817 75 144 0.9 8.7 0.00 1.08 0.00 78 1017.0
20260510124647 68 337 5.2 7.8 0.00 1.83 0.00 95 1016.3
20260510100532 66 272 0.0 1.7 0.00 1.83 0.00 95 1013.9
20260510092513 67 29 0.9 3.5 0.00 1.83 0.00 94 1013.9
20260510063401 67 342 1.7 5.2 0.00 1.83 0.00 95 1012.9
20260510055342 66 280 0.0 0.0 0.00 1.83 0.00 95 1013.2
20260510052325 66 188 0.9 1.7 0.00 1.83 0.00 96 1013.2
20260510043305 66 185 0.0 5.2 0.00 1.83 1.89 96 1013.6
20260510035247 66 243 0.0 2.6 0.00 1.83 1.89 96 1014.2
20260510031229 67 199 0.0 0.0 0.00 1.83 1.89 96 1014.2
20260510022206 67 212 0.0 1.7 0.00 1.83 1.89 96 1013.6
20260510013145 67 212 2.6 7.0 0.00 1.83 1.89 96 1013.6
20260510003118 67 174 0.9 3.5 0.03 1.83 1.89 96 1013.2
20260509234054 67 155 1.7 2.6 0.05 1.83 1.89 96 1013.6
20260509223023 67 191 0.0 0.0 0.01 1.85 1.83 96 1013.2
20260509221013 67 216 0.0 2.6 0.01 1.86 1.83 96 1012.6
20260509215004 67 178 0.0 2.6 0.01 1.89 1.83 96 1012.6
20260509212955 67 184 1.7 7.8 0.00 2.03 1.82 96 1012.6